Weather reports worldwide

Advertisment
Shoeburyness Landwick, United Kingdom (3693): temperature & dewpoint: 31.07.2020 23:00:00 - 06.08.2020 23:00:00 (BST)Shoeburyness Landwick, United Kingdom (3693): temperature -20cm & temperature -100cm: 31.07.2020 23:00:00 - 06.08.2020 23:00:00 (BST)Shoeburyness Landwick, United Kingdom (3693): wind speed: 31.07.2020 23:00:00 - 06.08.2020 23:00:00 (BST)Shoeburyness Landwick, United Kingdom (3693): wind direction: 31.07.2020 23:00:00 - 06.08.2020 23:00:00 (BST)Shoeburyness Landwick, United Kingdom (3693): reduced air pressure: 31.07.2020 23:00:00 - 06.08.2020 23:00:00 (BST)Shoeburyness Landwick, United Kingdom (3693): visibility: 31.07.2020 23:00:00 - 06.08.2020 23:00:00 (BST)Shoeburyness Landwick, United Kingdom (3693): sunshine duration: 31.07.2020 23:00:00 - 06.08.2020 23:00:00 (BST)Shoeburyness Landwick, United Kingdom (3693): precipitation: 31.07.2020 23:00:00 - 06.08.2020 23:00:00 (BST)
Date & Time tt [°C] td [°C] tt -20cm [°C] tt -100cm [°C] ff [km/h] ff [kn] dd ppp [hPa] vv [km] sd [min] rr [mm]
06.08.2020 23:00:00 19,4 16,3 - - 13 7 SSE 1018,7 40 0 0,0
06.08.2020 22:00:00 19,8 16,5 - - 16 9 SE 1018,3 50 0 0,0
06.08.2020 21:00:00 19,8 17,1 - - 15 8 ESE 1017,9 35 24 0,0
06.08.2020 20:00:00 21,4 16,6 - - 21 11 ESE 1017,6 50 60 0,0
06.08.2020 19:00:00 22,6 17,3 - - 21 11 ESE 1017,4 45 60 0,0
06.08.2020 18:00:00 23,5 16,9 - - 21 11 E 1017,5 40 60 0,0
06.08.2020 17:00:00 24,4 16,8 - - 21 11 ESE 1017,7 40 60 0,0
06.08.2020 16:00:00 24,6 17,0 - - 21 11 E 1017,8 50 60 0,0
06.08.2020 15:00:00 25,1 16,5 - - 15 8 E 1017,9 45 60 0,0
06.08.2020 14:00:00 24,2 17,0 - - 15 8 ESE 1018,1 50 48 0,0
06.08.2020 13:00:00 23,8 17,6 - - 11 6 SSE 1018,2 29 0 0,0
06.08.2020 12:00:00 22,7 16,8 - - 13 7 SW 1018,4 45 12 0,0
06.08.2020 11:00:00 21,6 16,7 - - 16 9 SW 1018,3 50 0 0,0
06.08.2020 10:00:00 21,2 16,9 20,4 18,0 18 10 SW 1018,1 45 0 0,0
06.08.2020 09:00:00 20,7 16,9 - - 15 8 SSW 1017,8 50 6 0,0
06.08.2020 08:00:00 19,3 16,6 - - 15 8 SW 1017,4 40 0 0,0
06.08.2020 07:00:00 18,8 16,6 - - 15 8 SSW 1016,9 45 0 0,0
06.08.2020 06:00:00 18,4 16,3 - - 16 9 SSW 1016,3 45 0 0,0
06.08.2020 05:00:00 18,2 15,8 - - 15 8 SSW 1015,9 50 0 0,0
06.08.2020 04:00:00 18,9 16,0 - - 11 6 SW 1015,6 50 0 0,0
06.08.2020 03:00:00 19,3 15,8 - - 9 5 WSW 1015,3 45 0 0,0
06.08.2020 02:00:00 19,5 15,7 - - 15 8 WSW 1015,1 50 0 0,0
06.08.2020 01:00:00 19,1 15,9 - - 11 6 SW 1014,9 11 - 0,0
06.08.2020 00:00:00 20,0 14,5 - - 13 7 SW 1014,5 50 0 0,0
05.08.2020 23:00:00 19,8 14,1 - - 15 8 SW 1014,3 50 0 0,0
05.08.2020 22:00:00 20,2 14,1 - - 16 9 SW 1014,1 50 0 0,0
05.08.2020 21:00:00 20,9 13,6 - - 16 9 SW 1013,5 50 0 0,0
05.08.2020 20:00:00 21,7 10,3 - - 21 11 SW 1013,1 50 18 0,0
05.08.2020 19:00:00 22,3 11,3 - - 26 14 SW 1012,8 50 24 0,0
05.08.2020 18:00:00 23,8 10,9 - - 22 12 WSW 1012,6 40 48 0,0
05.08.2020 17:00:00 25,9 8,6 - - 28 15 SW 1012,2 30 60 0,0
05.08.2020 16:00:00 25,2 6,0 - - 28 15 SW 1012,5 35 60 0,0
05.08.2020 15:00:00 25,7 8,4 - - 29 16 SW 1012,6 40 54 0,0
05.08.2020 14:00:00 25,8 8,9 - - 29 16 SW 1012,4 40 60 0,0
05.08.2020 13:00:00 25,1 10,2 - - 26 14 SW 1012,4 45 60 0,0
05.08.2020 12:00:00 24,6 12,5 - - 24 13 SW 1012,9 45 60 0,0
05.08.2020 11:00:00 22,5 12,9 - - 24 13 SW 1013,3 50 60 0,0
05.08.2020 10:00:00 21,6 12,9 19,7 18,0 24 13 SSW 1013,4 40 60 0,0
05.08.2020 09:00:00 20,1 13,3 - - 21 11 SW 1013,6 50 60 0,0
05.08.2020 08:00:00 18,5 12,6 - - 21 11 SW 1013,6 45 60 0,0
05.08.2020 07:00:00 16,7 14,0 - - 13 7 SSW 1013,3 40 60 0,0
05.08.2020 06:00:00 15,5 13,1 - - 22 12 SSW 1013,0 45 6 0,0
05.08.2020 05:00:00 15,5 13,1 - - 21 11 SW 1013,1 50 0 0,0
05.08.2020 04:00:00 15,5 12,8 - - 21 11 SW 1013,2 45 0 0,0
05.08.2020 03:00:00 15,8 12,4 - - 21 11 SW 1013,4 50 0 0,0
05.08.2020 02:00:00 16,1 12,0 - - 22 12 SW 1013,5 45 0 0,0
05.08.2020 01:00:00 16,6 11,0 - - 24 13 WSW 1013,4 50 - 0,0
05.08.2020 00:00:00 16,8 10,7 - - 21 11 WSW 1013,7 45 0 0,0
04.08.2020 23:00:00 17,4 11,9 - - 22 12 WSW 1013,8 50 0 0,0
04.08.2020 22:00:00 17,7 12,1 - - 18 10 SW 1014,0 45 0 0,0
04.08.2020 21:00:00 18,4 11,7 - - 21 11 SW 1013,9 50 24 0,0
04.08.2020 20:00:00 19,5 11,0 - - 21 11 SW 1013,8 50 60 0,0
04.08.2020 19:00:00 20,8 9,5 - - 24 13 SW 1013,9 50 60 0,0
04.08.2020 18:00:00 21,2 9,1 - - 29 16 SW 1014,1 45 54 0,0
04.08.2020 17:00:00 22,6 8,1 - - 22 12 SW 1014,3 45 54 0,0
04.08.2020 16:00:00 22,6 6,6 - - 31 17 SW 1014,7 40 36 0,0
04.08.2020 15:00:00 22,9 5,8 - - 28 15 SW 1015,2 50 30 0,0
04.08.2020 14:00:00 22,8 10,7 - - 21 11 SW 1015,5 45 24 0,0
04.08.2020 13:00:00 22,1 11,1 - - 18 10 SSW 1016,1 30 54 0,0
04.08.2020 12:00:00 21,1 10,6 - - 18 10 SW 1016,6 30 54 0,0
04.08.2020 11:00:00 20,3 10,8 - - 21 11 S 1016,8 45 60 0,0
04.08.2020 10:00:00 19,2 11,1 19,2 18,0 15 8 SSE 1017,2 50 60 0,0
04.08.2020 09:00:00 17,8 12,3 - - 15 8 S 1017,7 45 60 0,0
04.08.2020 08:00:00 16,2 15,2 - - 8 4 SSW 1017,6 35 60 0,0
04.08.2020 07:00:00 12,4 12,3 - - 2 1 NW 1017,3 24 54 0,0
04.08.2020 06:00:00 9,4 9,2 - - 8 4 NNW 1017,0 4,3 0 0,0
04.08.2020 05:00:00 9,6 9,3 - - 8 4 NW 1017,1 5 0 0,0
04.08.2020 04:00:00 9,5 9,1 - - 8 4 NW 1017,4 2,4 0 0,0
04.08.2020 03:00:00 10,6 10,3 - - 5 3 NNW 1017,3 9 0 0,0
04.08.2020 02:00:00 10,9 10,4 - - 5 3 NNW 1017,5 13 0 0,0
04.08.2020 01:00:00 10,6 9,8 - - 5 3 N 1017,8 19 - 0,0
04.08.2020 00:00:00 11,6 10,8 - - 4 2 N 1017,6 40 0 0,0
03.08.2020 23:00:00 12,1 10,8 - - 4 2 NE 1017,4 50 0 0,0
03.08.2020 22:00:00 13,7 11,0 - - 8 4 ESE 1017,2 50 0 0,0
03.08.2020 21:00:00 15,4 11,1 - - 11 6 E 1016,6 50 6 0,0
03.08.2020 20:00:00 17,0 12,2 - - 16 9 E 1016,2 45 24 0,0
03.08.2020 19:00:00 17,8 12,4 - - 26 14 E 1015,6 40 24 0,0
03.08.2020 18:00:00 18,1 12,4 - - 24 13 E 1015,3 50 0 0,0
03.08.2020 17:00:00 21,1 6,8 - - 16 9 N 1014,7 50 18 0,0
03.08.2020 16:00:00 21,0 7,0 - - 9 5 NNE 1014,9 50 42 0,0
03.08.2020 15:00:00 20,9 6,8 - - 16 9 NNW 1015,1 50 6 0,0
03.08.2020 14:00:00 20,6 7,5 - - 13 7 NW 1015,1 35 24 0,0
03.08.2020 13:00:00 21,0 7,9 - - 15 8 N 1015,1 35 42 0,0
03.08.2020 12:00:00 20,6 8,0 - - 18 10 NW 1015,3 40 60 0,0
03.08.2020 11:00:00 19,1 9,7 - - 16 9 N 1015,4 30 6 0,0
03.08.2020 10:00:00 17,2 10,3 20,4 17,9 18 10 N 1015,5 45 18 0,0
03.08.2020 09:00:00 15,1 11,3 - - 18 10 N 1015,1 45 0 0,0
03.08.2020 08:00:00 13,9 11,7 - - 11 6 NNW 1014,9 50 0 0,4
03.08.2020 07:00:00 13,3 11,4 - - 21 11 NNW 1014,7 6 0 0,4
03.08.2020 06:00:00 14,8 10,6 - - 16 9 NNW 1014,4 50 0 0,0
03.08.2020 05:00:00 14,4 10,8 - - 11 6 N 1014,0 50 0 0,0
03.08.2020 04:00:00 15,1 10,9 - - 11 6 NNW 1013,9 50 0 0,0
03.08.2020 03:00:00 15,2 10,6 - - 13 7 NNW 1014,0 50 0 0,0
03.08.2020 02:00:00 16,3 11,1 - - 9 5 WNW 1014,2 50 0 0,0
03.08.2020 01:00:00 17,7 11,6 - - 11 6 W 1014,5 50 - 0,0
03.08.2020 00:00:00 18,6 12,1 - - 15 8 W 1014,7 50 0 0,0
02.08.2020 23:00:00 19,0 12,9 - - 13 7 WSW 1014,8 50 0 0,0
02.08.2020 22:00:00 19,2 12,1 - - 18 10 WSW 1014,9 50 0 0,0
02.08.2020 21:00:00 19,9 11,9 - - 16 9 W 1014,7 50 0 0,0
02.08.2020 20:00:00 21,0 12,8 - - 18 10 WSW 1014,4 50 6 0,0
02.08.2020 19:00:00 22,3 9,0 - - 13 7 WSW 1014,4 50 6 0,0
02.08.2020 18:00:00 22,2 8,8 - - 16 9 WNW 1014,6 50 24 0,0
02.08.2020 17:00:00 22,6 8,8 - - 18 10 WSW 1014,8 50 6 0,0
02.08.2020 16:00:00 22,8 8,0 - - 15 8 WSW 1015,2 50 48 0,0
02.08.2020 15:00:00 23,2 8,7 - - 22 12 WSW 1015,6 35 54 0,0
02.08.2020 14:00:00 22,8 9,9 - - 22 12 WSW 1016,0 35 48 0,0
02.08.2020 13:00:00 21,5 9,5 - - 22 12 WSW 1016,4 27 60 0,0
02.08.2020 12:00:00 20,5 9,6 - - 22 12 WSW 1016,8 40 60 0,0
02.08.2020 11:00:00 19,7 9,8 - - 16 9 WSW 1017,0 26 60 0,0
02.08.2020 10:00:00 19,0 10,8 20,5 17,7 16 9 W 1016,9 40 60 0,0
02.08.2020 09:00:00 17,7 9,7 - - 15 8 WNW 1016,9 35 60 0,0
02.08.2020 08:00:00 16,3 9,7 - - 16 9 WNW 1016,9 40 60 0,0
02.08.2020 07:00:00 14,9 9,9 - - 15 8 WNW 1016,9 50 60 0,0
02.08.2020 06:00:00 12,8 9,4 - - 9 5 WNW 1016,6 35 0 0,0
02.08.2020 05:00:00 14,3 9,5 - - 13 7 WNW 1016,1 50 0 0,0
02.08.2020 04:00:00 15,5 9,3 - - 11 6 WNW 1015,8 50 0 0,0
02.08.2020 03:00:00 16,5 9,7 - - 15 8 WNW 1015,7 50 0 0,0
02.08.2020 02:00:00 16,3 11,7 - - 15 8 WNW 1015,5 50 0 0,0
02.08.2020 01:00:00 17,4 12,4 - - 13 7 WNW 1015,7 50 - 0,0
02.08.2020 00:00:00 17,9 12,4 - - 13 7 WNW 1015,5 50 0 0,0
01.08.2020 23:00:00 19,2 14,7 - - 13 7 W 1015,2 40 0 0,0
01.08.2020 22:00:00 20,2 15,1 - - 16 9 WSW 1015,0 30 0 0,0
01.08.2020 21:00:00 21,1 15,3 - - 18 10 WSW 1014,7 30 0 0,0
01.08.2020 20:00:00 21,4 16,0 - - 22 12 SW 1014,4 30 6 0,0
01.08.2020 19:00:00 23,1 15,3 - - 21 11 SW 1014,2 30 54 0,0
01.08.2020 18:00:00 24,0 14,9 - - 22 12 SW 1014,3 45 60 0,0
01.08.2020 17:00:00 25,9 12,4 - - 18 10 WSW 1014,5 50 30 0,0
01.08.2020 16:00:00 24,8 11,9 - - 18 10 W 1014,8 45 36 0,0
01.08.2020 15:00:00 24,7 12,1 - - 18 10 W 1015,0 30 48 0,0
01.08.2020 14:00:00 23,8 12,2 - - 18 10 W 1015,1 23 6 0,0
01.08.2020 13:00:00 23,2 11,9 - - 21 11 WSW 1015,3 40 36 0,0
01.08.2020 12:00:00 23,5 12,4 - - 24 13 WSW 1015,2 30 60 0,0
01.08.2020 11:00:00 22,3 13,5 - - 18 10 WSW 1015,3 40 60 0,0
01.08.2020 10:00:00 21,2 13,6 20,7 17,7 18 10 WSW 1015,0 35 60 0,0
01.08.2020 09:00:00 20,9 13,4 - - 15 8 W 1014,9 40 60 0,0
01.08.2020 08:00:00 19,7 13,2 - - 15 8 WNW 1014,7 35 60 0,0
01.08.2020 07:00:00 18,8 13,9 - - 15 8 WNW 1014,4 40 18 0,0
01.08.2020 06:00:00 19,1 17,2 - - 11 6 WSW 1013,9 24 0 0,0
01.08.2020 05:00:00 19,3 17,3 - - 11 6 WSW 1013,2 22 0 0,0
01.08.2020 04:00:00 19,5 17,2 - - 15 8 SW 1013,0 22 0 0,0
01.08.2020 03:00:00 19,8 17,0 - - 13 7 WSW 1012,8 20 0 0,0
01.08.2020 02:00:00 19,8 16,7 - - 9 5 SW 1012,6 22 0 0,0
01.08.2020 01:00:00 20,1 16,4 - - 9 5 SW 1012,7 35 - 0,0
01.08.2020 00:00:00 21,9 16,5 - - 13 7 WSW 1012,2 35 0 0,0
31.07.2020 23:00:00 22,9 16,4 - - 13 7 W 1011,3 30 0 0,0

tt = temperature
td = dewpoint
tt -20cm = temperature -20cm
tt -100cm = temperature -100cm
ff = wind speed
dd = wind direction
ppp = reduced air pressure
vv = visibility
sd = sunshine duration
rr = precipitation

Next stations